Temp
11 11 12 14 16 16 16 17 17 17 18 18 19 20 20 21 23 23 23 28 29 29 29 27 27 28 28 28 29 30 26 27 26 25 28 28 29 31 28 27 27 27 24 22 20
10 10 11 13 15 16 16 17 17 17 17 18 19 20 20 20 21 21 29 28 29 29 28 27 26 27 25 28 28 27 25 28 30 32 31 30 30 29 28 25 25 22 22 21 20
10 10 10 11 14 15 16 16 17 17 17 18 18 19 20 20 19 26 30 28 28 29 29 29 29 28 27 28 28 29 28 31 32 32 34 33 29 30 27 26 26 21 20 21 21
9 10 10 10 13 15 16 16 16 17 17 18 18 19 20 20 24 29 29 29 29 28 27 28 27 27 28 27 29 29 31 32 32 33 34 33 28 27 27 27 25 22 22 21 21
9 9 10 10 12 14 16 16 16 17 17 17 18 18 20 20 22 29 29 29 27 26 26 26 27 27 28 29 29 30 30 32 32 32 33 32 28 27 27 26 24 23 23 22 22
9 9 9 10 11 14 16 16 16 17 17 17 17 18 17 20 29 29 29 29 28 26 27 28 28 29 30 29 29 31 30 31 32 31 31 32 28 27 26 26 25 24 23 22 22
9 9 9 10 10 13 16 16 17 17 17 17 17 17 17 21 28 28 28 30 30 29 27 30 31 29 29 29 31 31 29 30 31 29 28 31 27 25 26 28 26 25 24 22 23
9 9 9 10 10 13 16 16 17 17 17 17 17 16 17 26 29 28 30 30 31 30 31 32 32 29 30 30 29 29 29 28 30 29 28 27 26 28 28 26 24 23 22 22 20
9 9 10 10 10 14 16 17 18 17 17 17 16 16 20 27 28 29 30 30 31 32 32 33 32 30 28 28 25 27 26 28 30 31 28 29 26 28 28 27 25 23 21 20 20
9 10 10 10 11 14 16 17 18 17 17 15 17 18 21 27 30 30 30 31 30 30 29 30 28 27 25 25 24 25 27 28 30 30 29 27 24 24 26 24 22 22 20 19 19
10 10 10 11 12 14 16 17 16 16 17 19 20 23 27 29 31 30 31 31 30 30 27 28 26 24 25 26 29 29 29 29 29 30 26 24 23 22 23 23 21 20 19 18 16
10 10 10 12 13 14 14 13 22 21 19 22 22 24 27 29 27 29 31 28 28 26 28 27 25 28 29 30 30 31 29 28 29 30 26 23 21 21 21 21 21 19 19 17 16
10 10 10 13 15 16 16 18 21 21 18 24 24 25 27 29 27 28 28 28 28 27 27 26 28 31 30 31 30 29 30 29 29 26 25 23 21 21 21 21 21 20 18 17 15
10 10 10 15 15 16 17 20 20 20 18 25 25 27 28 28 27 29 30 29 29 27 27 27 30 31 31 31 30 28 29 30 30 27 22 25 20 20 20 20 19 19 17 15 15
10 10 11 13 13 15 18 20 20 19 21 26 27 30 29 27 29 31 32 29 27 28 29 28 29 29 30 30 31 28 29 29 30 27 26 23 20 19 20 19 19 17 17 14 13
10 10 11 13 13 17 17 19 18 18 21 27 27 27 27 27 28 30 31 31 30 29 29 28 30 31 31 31 30 31 30 27 27 26 24 25 22 20 19 19 19 18 16 14 12
10 10 11 12 14 16 17 17 17 19 28 27 26 27 26 27 28 29 28 27 26 27 27 29 29 31 31 30 29 30 28 23 23 23 23 24 21 19 19 20 19 16 14 13 12
10 10 12 14 15 16 16 17 19 25 27 29 28 27 26 28 28 28 27 26 27 28 27 26 26 29 30 30 29 28 25 23 25 24 24 22 19 18 18 18 17 17 15 13 12
10 11 12 16 16 15 14 17 21 27 29 28 27 26 27 29 28 28 27 27 28 28 28 26 27 29 30 31 30 28 26 28 26 25 20 20 19 19 19 17 17 16 14 12 12
10 13 15 16 16 15 15 18 23 28 28 29 27 27 26 27 28 28 28 29 29 28 28 28 27 29 30 31 30 30 28 25 24 25 21 20 20 19 19 17 17 15 13 13 12
9 12 15 16 16 14 15 19 24 28 26 26 27 28 28 27 27 27 28 27 27 28 28 27 25 28 29 27 26 26 25 25 25 24 22 18 19 20 19 18 16 15 14 12 11
10 13 15 16 13 14 16 22 23 27 27 26 28 27 29 27 27 26 25 26 27 27 27 27 26 25 26 28 29 26 26 25 22 23 23 19 16 18 17 17 16 15 15 12 11
11 13 15 15 13 15 18 22 25 26 27 27 28 27 29 28 25 25 24 26 27 24 24 24 23 23 25 25 25 26 26 26 25 23 23 17 16 19 18 17 16 14 14 13 12
11 13 13 12 14 17 19 21 24 26 25 27 28 28 27 25 26 24 24 25 25 25 19 23 24 24 22 25 26 25 25 24 23 21 20 19 18 18 17 16 15 14 13 12 12
11 15 14 12 13 15 19 22 23 24 25 27 27 28 27 26 26 23 23 24 26 23 26 23 23 24 25 25 25 25 24 23 23 22 20 20 18 17 17 16 15 15 14 14 13
11 15 16 15 17 17 18 21 22 24 25 25 26 26 25 23 25 23 23 24 25 25 26 23 23 24 25 25 25 24 23 23 22 22 20 19 17 18 17 16 16 16 16 15 13
13 16 14 16 16 18 18 22 23 24 25 24 24 22 22 23 23 22 22 22 24 24 23 23 22 22 23 24 23 21 23 22 21 21 20 18 18 18 17 16 15 16 15 11 9
Height
821 821 819 818 817 816 814 812 810 808 805 802 800 799 795 791 785 783 780 773 772 773 774 775 776 775 775 774 772 772 806 810 810 809 791 774 778 755 760 800 776 775 779 786 806
820 818 817 816 815 814 812 811 809 806 804 802 799 797 794 790 784 777 768 769 771 771 772 774 775 775 780 774 775 784 806 794 773 762 774 769 764 765 782 799 798 799 795 800 808
818 816 816 814 813 812 810 809 807 805 802 800 798 795 793 790 785 766 762 764 768 769 771 772 772 773 780 773 773 774 793 769 761 757 763 761 775 759 783 791 785 803 808 816 820
816 814 813 812 810 809 808 807 806 804 801 799 796 793 791 790 795 763 763 764 766 768 770 770 771 778 783 785 767 782 765 760 754 747 745 761 768 774 772 777 779 789 793 795 809
814 812 811 810 808 806 805 804 803 801 800 798 795 793 790 789 775 762 764 763 763 766 767 770 774 775 782 774 769 774 765 755 748 746 744 748 765 773 778 777 784 787 794 793 808
811 810 808 808 805 803 802 801 800 799 799 796 794 793 792 795 759 759 760 761 761 764 765 766 767 762 768 771 774 761 760 757 749 749 750 757 773 771 782 779 788 789 799 801 808
808 807 806 805 803 800 799 798 797 797 796 794 793 793 791 773 758 761 762 759 759 760 762 762 759 767 763 771 754 759 772 762 756 757 768 754 780 788 772 766 785 795 796 803 807
806 805 804 803 800 798 796 795 794 794 793 791 791 792 785 757 755 756 757 758 758 759 758 757 758 760 760 757 763 776 773 789 765 762 766 772 805 778 769 778 792 800 804 808 817
803 803 802 801 798 795 793 792 791 791 790 789 790 789 778 755 752 751 753 755 755 755 755 755 755 761 764 780 797 785 807 792 775 752 765 772 804 776 772 781 797 803 812 818 823
801 801 800 798 795 793 790 789 788 788 788 789 787 793 765 754 747 748 750 752 753 753 758 759 765 779 785 796 821 805 798 787 778 766 763 781 800 794 783 793 805 810 815 822 828
799 798 797 795 793 791 788 787 790 789 785 776 770 763 751 748 745 746 747 749 750 755 775 765 787 800 788 778 771 774 780 782 771 754 781 796 810 811 804 805 811 819 825 829 837
797 795 795 791 790 789 788 790 781 781 782 763 761 758 752 750 754 746 748 757 759 775 766 778 793 766 758 760 767 765 775 781 767 757 781 801 822 819 815 818 816 823 828 837 843
794 793 792 788 786 786 785 783 781 778 784 755 750 753 750 749 754 747 744 752 762 772 772 785 766 753 760 760 767 768 774 775 779 781 785 803 831 830 826 823 825 828 834 841 847
792 791 789 786 788 784 784 780 780 779 792 758 752 743 743 745 753 736 737 747 756 770 766 771 750 755 755 762 764 782 760 762 768 790 827 789 851 841 837 838 836 838 841 846 851
790 790 787 787 784 783 783 779 780 780 801 746 745 734 735 748 740 736 731 742 762 761 760 770 758 760 760 761 753 773 757 763 762 781 791 807 836 850 839 847 845 844 845 849 854
788 787 785 785 784 782 781 779 781 796 796 748 740 748 751 748 744 735 737 735 739 753 752 755 738 742 748 747 750 748 760 769 771 785 817 797 816 851 846 843 844 845 849 854 859
785 785 784 783 781 780 780 780 797 797 728 749 750 746 752 754 748 745 752 760 772 778 774 755 754 741 739 759 754 756 776 817 819 818 823 802 829 848 844 835 841 851 857 859 862
783 781 780 778 779 780 780 789 797 750 739 723 737 746 756 745 746 748 758 771 755 758 773 784 788 754 744 756 765 767 782 815 820 819 814 816 849 854 843 844 847 852 856 862 866
781 778 776 774 778 781 785 795 771 739 722 732 741 757 754 740 745 751 757 762 753 748 772 779 776 747 745 744 752 766 783 762 784 789 831 842 850 846 842 849 850 857 861 866 868
778 776 771 772 775 779 788 779 752 725 722 721 749 745 758 751 752 752 754 746 751 746 746 761 781 756 749 744 748 755 758 791 792 812 841 847 846 848 847 851 852 858 864 865 868
778 773 768 770 774 781 790 770 744 723 726 734 737 741 740 750 751 757 756 755 749 750 748 758 775 770 757 771 777 776 784 782 784 797 824 856 853 836 842 847 854 859 861 865 869
773 771 767 768 781 778 778 753 740 728 725 730 727 733 732 741 750 758 768 759 749 753 766 761 773 790 781 760 755 770 780 785 814 813 806 833 863 837 843 847 852 856 860 865 868
767 764 767 768 782 777 761 750 740 735 732 730 731 730 722 735 762 759 765 757 751 762 772 769 786 805 795 784 773 781 780 781 785 794 809 843 862 837 840 847 852 859 862 865 870
766 765 769 771 766 765 762 754 747 732 736 727 728 726 733 745 741 764 768 762 757 761 771 767 780 792 815 796 785 794 789 789 795 816 824 832 842 843 845 850 854 858 862 865 869
760 745 750 773 767 763 756 747 749 746 734 728 734 733 740 753 752 768 767 768 762 765 760 772 794 789 787 784 788 793 798 799 804 805 825 834 841 845 847 850 853 856 860 863 866
755 744 742 748 750 756 754 747 748 741 738 741 741 737 743 761 752 768 766 769 772 767 768 772 797 789 795 788 793 802 801 804 807 813 823 831 845 838 841 845 851 853 856 861 868
748 741 743 742 751 754 751 741 741 737 736 737 741 751 755 755 748 753 756 761 763 773 778 781 794 802 812 798 802 824 809 811 815 815 822 839 836 836 847 850 853 852 858 869 878
Wind_Speed
14 14 15 15 16 16 17 18 18 18 19 21 20 22 22 26 28 22 8 12 8 15 9 3 9 13 17 7 8 3 4 8 6 9 5 9 7 4 14 8 13 8 5 26 38
14 15 16 16 16 16 17 17 18 18 18 19 21 21 22 25 28 17 24 19 15 12 10 10 6 10 4 6 4 5 2 7 8 4 3 12 12 5 12 9 9 19 26 38 34
15 16 17 17 16 16 16 17 18 18 19 19 21 21 21 22 6 7 6 20 17 14 10 12 18 7 8 6 8 7 8 15 15 7 11 3 15 14 17 5 6 20 20 18 19
16 17 18 18 16 16 16 17 18 18 19 19 21 22 21 6 3 1 3 9 14 12 10 4 6 6 6 8 10 6 13 13 9 4 10 9 8 13 9 7 22 26 26 26 16
18 18 18 18 17 17 17 18 18 19 19 18 20 20 9 3 11 17 7 6 14 16 12 6 7 7 8 7 9 6 11 10 11 8 5 11 9 13 19 18 24 22 20 20 17
17 16 17 18 18 18 18 18 18 19 19 18 18 16 2 6 11 17 10 5 9 16 9 11 9 11 8 8 5 7 9 10 9 9 11 5 7 9 10 19 17 19 16 15 15
14 15 16 17 18 18 18 18 18 18 18 18 16 7 5 16 6 6 9 9 12 15 6 18 27 6 8 9 8 9 10 12 11 7 4 2 8 7 12 16 17 16 15 11 12
13 14 16 17 19 18 18 18 17 18 19 17 11 3 8 16 12 20 14 16 14 20 19 21 24 8 4 5 10 7 5 5 4 6 0 9 6 7 3 13 17 13 11 13 20
11 13 15 17 19 17 17 18 17 18 15 10 4 5 9 14 10 18 16 15 16 15 15 16 9 2 8 4 6 5 6 10 2 4 5 9 9 8 3 20 16 17 19 19 18
12 13 15 16 17 16 16 16 15 14 5 5 9 2 8 5 14 20 17 17 10 8 6 5 2 2 5 1 7 9 6 7 4 4 10 13 15 17 18 19 16 16 19 17 16
12 13 15 15 14 14 14 6 2 1 7 10 9 6 4 8 3 2 4 13 6 2 7 6 3 7 14 13 15 9 5 4 4 5 10 17 16 15 9 16 16 13 17 17 19
12 13 16 13 11 11 10 3 5 2 7 18 19 17 25 11 4 9 14 5 5 6 7 4 8 16 15 14 11 4 5 7 8 10 17 20 14 11 14 7 15 17 16 16 16
11 13 16 11 10 8 10 12 10 7 3 8 14 10 10 7 6 8 10 9 5 7 7 9 15 15 17 3 6 4 3 6 5 12 19 20 7 8 8 14 15 15 13 13 13
11 12 14 8 6 4 5 5 8 4 2 4 7 6 11 7 6 16 13 8 5 11 12 7 16 13 4 2 5 5 9 5 4 6 7 3 4 5 10 12 12 11 12 10 11
11 12 11 7 9 3 9 4 6 2 1 10 7 10 8 8 4 3 23 6 10 10 6 10 9 7 2 5 3 8 7 6 3 5 6 5 7 6 11 10 9 8 10 9 9
11 11 9 1 6 9 12 6 2 2 5 8 5 7 6 7 6 5 2 1 5 6 7 9 5 1 3 4 3 5 4 8 5 2 3 5 6 4 1 12 10 11 11 11 12
12 11 9 6 3 7 8 3 2 3 11 7 5 9 8 7 6 8 5 4 4 3 4 4 8 4 5 3 7 3 2 3 4 2 3 9 11 5 7 9 13 11 8 10 10
12 12 9 16 5 4 4 2 5 9 8 7 8 11 8 9 4 7 8 7 9 6 2 7 5 6 4 4 2 3 8 5 3 1 4 10 4 2 9 10 11 10 9 9 8
11 11 6 9 13 2 3 2 6 4 5 9 11 8 7 6 7 7 9 8 2 3 3 5 3 8 6 2 1 5 3 5 2 4 7 4 4 3 11 8 10 9 8 8 8
4 6 6 10 14 5 2 5 5 4 7 12 7 9 7 8 4 2 3 4 4 6 5 3 2 7 3 1 6 2 3 5 4 0 5 3 3 6 12 10 10 9 8 7 8
4 2 10 12 12 2 3 6 8 4 8 6 2 7 6 8 8 7 4 7 7 5 6 5 4 2 5 4 5 6 6 5 1 4 3 4 2 6 11 10 10 8 8 9 9
5 2 15 18 3 3 4 4 7 2 2 3 1 5 2 9 8 5 4 4 5 4 4 2 2 3 6 4 5 7 6 5 3 5 1 4 1 7 10 11 10 8 8 8 9
3 3 10 5 4 3 6 8 4 4 3 2 3 6 5 5 6 9 5 5 3 5 2 4 4 3 4 6 8 6 6 6 3 2 4 5 4 7 11 11 11 9 8 8 9
3 4 2 2 3 3 6 7 3 3 6 5 1 4 6 7 8 5 5 5 5 4 2 2 4 2 4 3 1 5 8 7 6 4 3 5 13 10 11 12 10 8 8 8 8
3 3 7 5 5 6 4 5 6 3 3 3 4 1 6 4 5 6 7 4 1 1 2 4 4 6 7 8 9 7 10 10 10 9 6 11 14 10 9 11 9 10 9 10 8
3 2 2 5 6 7 5 6 9 5 4 2 2 5 7 5 2 7 8 4 3 3 3 4 1 5 3 7 8 7 7 9 11 11 14 16 10 11 10 9 7 8 9 9 13
7 5 2 2 7 4 4 4 9 7 3 6 4 11 14 5 10 7 8 6 5 6 3 3 4 3 2 7 7 5 4 9 9 10 11 6 7 7 11 13 4 8 13 15 15
Wind_Direction
307 309 309 308 307 310 312 315 318 320 321 322 322 322 325 324 317 318 251 251 262 231 232 241 235 250 274 264 266 272 272 276 187 187 235 232 252 101 81 344 44 10 158 134 154
308 309 311 306 304 306 309 311 314 316 319 320 322 321 327 330 324 279 267 242 250 200 195 213 238 241 266 267 256 162 188 249 236 120 175 232 227 119 93 91 64 71 96 127 143
307 309 311 308 301 303 304 306 309 313 315 320 322 323 328 330 308 247 275 225 228 229 227 235 256 222 239 241 254 254 235 257 268 146 275 255 90 123 138 140 191 135 120 126 127
305 307 308 309 301 299 301 303 305 308 311 319 322 325 329 324 272 150 157 202 220 222 230 263 278 279 253 258 261 273 266 263 258 181 154 268 116 71 129 152 127 137 146 151 153
301 302 302 305 303 297 296 300 302 305 309 316 320 327 346 288 250 276 236 225 212 198 216 216 257 254 246 264 281 273 274 289 295 298 203 104 105 91 83 111 132 142 138 133 155
303 299 301 302 302 297 294 297 300 303 305 310 316 320 327 261 259 227 199 164 195 185 210 229 243 252 252 261 276 288 301 302 311 312 11 65 86 78 116 128 135 131 139 144 158
305 302 303 302 304 299 293 295 297 300 300 304 306 303 260 240 197 173 216 211 201 195 215 231 244 246 280 319 295 299 318 310 303 359 30 87 61 133 183 144 144 140 142 135 150
302 305 304 304 305 299 293 293 295 296 297 298 288 175 252 262 270 283 248 252 241 217 214 238 253 259 252 304 336 327 335 291 7 99 199 71 348 359 222 100 114 123 101 84 86
298 304 303 305 309 302 295 292 293 292 293 282 225 193 262 311 226 244 243 241 238 247 259 261 273 279 349 328 320 306 254 274 240 181 89 88 302 322 338 113 107 101 98 93 94
298 302 302 308 314 305 298 298 291 287 271 269 262 337 260 239 234 218 223 231 241 210 239 251 339 281 310 103 238 249 254 276 239 205 130 129 74 19 92 98 97 98 101 96 87
296 300 303 311 316 309 316 342 332 299 232 204 189 224 230 261 345 298 227 204 245 281 197 222 170 234 234 229 241 256 269 321 343 256 69 79 69 47 67 99 98 88 94 94 92
293 301 304 311 308 297 306 259 349 307 294 234 250 244 276 279 327 232 230 204 200 234 193 253 223 233 238 243 252 238 324 318 326 70 101 94 75 71 52 74 99 104 100 100 98
292 301 309 310 294 273 231 246 338 358 264 271 200 230 242 222 240 251 177 204 183 239 236 204 235 237 246 280 357 326 286 275 256 74 95 98 50 75 62 78 86 91 100 100 103
291 303 313 309 297 301 252 20 3 345 332 204 192 240 208 205 253 238 224 160 227 208 236 227 253 254 231 16 1 308 297 310 355 126 159 256 118 98 94 75 77 91 93 101 99
289 299 307 309 303 331 8 346 343 324 241 154 148 150 154 181 244 228 177 189 210 227 171 249 264 261 184 207 234 262 296 301 332 331 11 94 88 144 128 113 100 91 97 97 102
284 297 306 135 277 325 323 328 3 72 245 173 121 173 161 221 275 161 160 85 232 238 261 238 283 265 154 10 309 230 24 335 338 81 358 3 109 133 213 132 112 98 96 101 93
280 284 281 230 195 340 330 20 73 208 143 145 172 166 164 197 243 142 175 223 212 196 231 247 246 221 104 13 325 333 93 323 334 357 114 92 60 99 64 101 116 106 106 100 105
280 281 262 232 200 343 355 67 220 214 232 150 133 160 186 187 210 157 178 200 263 271 245 217 266 185 154 172 237 279 166 176 247 262 137 42 89 139 96 84 95 105 107 113 118
284 280 236 238 211 172 79 177 221 280 208 124 137 181 224 177 136 165 193 202 2 228 92 5 75 59 66 33 95 315 26 227 123 26 84 107 61 78 132 128 124 137 130 134 142
268 239 221 173 154 168 109 248 247 343 332 134 161 186 176 167 123 184 174 21 101 56 77 302 118 130 192 193 297 215 301 13 15 44 112 105 117 148 160 156 143 133 139 144 123
250 229 153 163 144 83 196 250 298 43 17 21 252 197 172 149 164 200 164 30 36 40 23 21 56 225 76 47 61 14 25 16 67 82 125 127 113 95 120 132 129 132 136 135 128
261 197 166 152 109 203 218 229 304 322 348 323 315 251 230 160 179 82 75 78 34 41 7 8 113 10 129 73 49 75 59 55 99 311 288 92 115 99 110 115 117 121 126 130 130
237 122 168 183 166 227 277 265 280 311 208 293 330 353 36 86 100 106 80 350 9 68 55 342 352 33 9 10 4 68 49 31 358 54 328 114 169 133 117 116 117 116 117 120 118
280 126 109 183 264 239 208 250 241 292 292 256 309 335 45 64 62 121 106 46 43 82 164 68 51 93 158 105 8 48 48 32 51 63 64 86 135 140 130 125 124 124 129 127 132
243 195 165 193 245 244 297 208 207 225 268 329 36 315 95 95 86 101 84 113 62 38 49 82 83 80 70 66 58 55 69 46 48 70 91 135 108 103 106 121 132 135 138 133 139
280 35 135 169 179 194 230 231 195 205 149 282 139 233 64 60 143 146 133 153 165 233 74 11 31 91 92 105 89 75 91 76 44 68 101 106 109 131 137 124 126 140 139 128 100
267 274 102 159 165 151 223 233 199 146 6 3 45 92 80 82 76 114 105 97 116 110 79 80 124 88 143 72 98 49 43 95 76 53 116 119 153 119 98 80 72 110 95 91 99